Location: Kapla
(46.2483°N, 15.0094°E)
Time: 20:43:34
(UTC+00:00)

Cosmos 2237 - Pass Details

Date: 03 March 2021
Orbit: 845 x 856 km, 70.8° (Epoch: 20 April)

Event Time Altitude Azimuth Distance (km) Brightness Sun altitude
Rises 18:06:39 0° 203° (SSW) 3,407 7.6 -14.2°
Reaches altitude 10° 18:09:05 10° 203° (SSW) 2,477 6.8 -14.6°
Maximum altitude 18:14:47 86° 116° (ESE) 864 4.2 -15.6°
Drops below altitude 10° 18:20:33 10° 28° (NNE) 2,498 6.5 -16.6°
Sets 18:23:01 0° 28° (NNE) 3,439 7.2 -17.0°
